Starlink 31584

operational
NORAD ID: 59862 Int'l Des: 2024-098 Owner: SPXS Country: US Constellation: starlink
LEOCIRCULAR

关于 Starlink 31584

正在加载描述...

实时位置

正在加载3D地球...

即将过境

高度历史

Altitude vs Time

uPlot chart will show altitude changes over time

两行轨道根数

1 59862U 24098E 25257.51102472 .00000589 00000-0 30919-4 0 9994
2 59862 42.9997 192.8111 0001780 271.7163 88.3484 15.27579772 74905
Epoch: Sep 14, 2025 • Age: 23 hours

当前状态

高度 494.6 km
速度 7.62 km/s
星下点 -41.66°S, 85.97°W
发射日期 May 24, 2024
运行时间 1.3 years
类型 internet

技术详情

分类 Payload
质量 730.00 kg
干质量 700.00 kg
总质量 730.00 kg
长度 0.30 m
直径 4.10 m
跨度 29.00 m
形状 Box + pan
制造商 SPXS
平台类型 Starlink V2M
阶段状态 In Orbit
所有者/国家 SPXS/US

大型星座

Loading constellations...